When you browse on this site, cookies collect data to enhance your experience and personalize the content and advertising you see.
Visit our Privacy Policy to learn more. By continuing to use the site, you agree to this use of cookies and data.
  • In Czech Republic
  • List of Countries
  • For 7 days
  • Water Temperature
  • Satellite Maps
  • Weather Map
  • Weather Widgets
  • user-avatar
    Login

    Hourly Weather Glicko

    Today, 10 December, Monday

    Time Temperature Precipitation Wind Pressure Humidity
    00:00 +4°C° 0.3 mm 8 mps 742 mmHg 79%
    01:00 +2°C° 0 mm 8 mps 743 mmHg 78%
    02:00 +3°C° 0 mm 7 mps 744 mmHg 78%
    03:00 +3°C° 0 mm 7 mps 744 mmHg 77%
    04:00 +3°C° 0 mm 7 mps 745 mmHg 76%
    05:00 +2°C° 0 mm 7 mps 746 mmHg 76%
    06:00 +2°C° 0 mm 7 mps 746 mmHg 75%
    07:00 +2°C° 0 mm 6 mps 747 mmHg 78%
    08:00 +2°C° 0.1 mm 7 mps 747 mmHg 77%
    09:00 +1°C° 0.1 mm 8 mps 748 mmHg 75%
    10:00 +2°C° 0.1 mm 8 mps 748 mmHg 74%
    11:00 +2°C° 0.1 mm 8 mps 748 mmHg 72%
    12:00 +2°C° 0.1 mm 8 mps 748 mmHg 70%
    13:00 +3°C° 0.1 mm 9 mps 749 mmHg 67%
    14:00 +2°C° 0.1 mm 8 mps 749 mmHg 69%
    15:00 +3°C° 0.1 mm 7 mps 749 mmHg 70%
    16:00 +2°C° 0.1 mm 6 mps 749 mmHg 72%
    17:00 +2°C° 0.1 mm 6 mps 749 mmHg 74%
    18:00 +2°C° 0.1 mm 6 mps 749 mmHg 75%
    19:00 +2°C° 0.1 mm 6 mps 749 mmHg 77%
    20:00 +2°C° 0.1 mm 6 mps 749 mmHg 78%
    21:00 +2°C° 0.1 mm 6 mps 749 mmHg 78%
    22:00 +2°C° 0.1 mm 6 mps 749 mmHg 78%
    23:00 +2°C° 0.4 mm 6 mps 749 mmHg 78%

    Tomorrow, 11 December, Tuesday

    Time Temperature Precipitation Wind Pressure Humidity
    00:00 +2°C° 0.4 mm 6 mps 749 mmHg 77%
    01:00 +2°C° 0.4 mm 6 mps 749 mmHg 77%
    02:00 +2°C° 0.5 mm 6 mps 749 mmHg 78%
    03:00 +2°C° 0.5 mm 6 mps 749 mmHg 80%
    04:00 +2°C° 0.5 mm 5 mps 749 mmHg 81%
    05:00 +2°C° 0.3 mm 5 mps 749 mmHg 82%
    06:00 +2°C° 0.3 mm 5 mps 750 mmHg 82%
    07:00 +1°C° 0.3 mm 5 mps 750 mmHg 83%
    08:00 +2°C° 0.2 mm 5 mps 751 mmHg 82%
    09:00 +2°C° 0.2 mm 6 mps 752 mmHg 81%
    10:00 +2°C° 0.2 mm 6 mps 752 mmHg 80%
    11:00 +2°C° 0.2 mm 6 mps 753 mmHg 79%
    12:00 +2°C° 0.2 mm 7 mps 753 mmHg 78%
    13:00 +2°C° 0.2 mm 7 mps 754 mmHg 76%
    14:00 +2°C° 0.2 mm 7 mps 754 mmHg 77%
    15:00 +2°C° 0.2 mm 6 mps 755 mmHg 78%
    16:00 +2°C° 0.2 mm 6 mps 755 mmHg 79%
    17:00 +2°C° 0.1 mm 6 mps 756 mmHg 80%
    18:00 +2°C° 0.1 mm 6 mps 756 mmHg 81%
    19:00 +2°C° 0.1 mm 5 mps 757 mmHg 83%
    20:00 +1°C° 0 mm 5 mps 757 mmHg 85%
    21:00 +1°C° 0 mm 4 mps 758 mmHg 87%
    22:00 +1°C° 0 mm 3 mps 758 mmHg 89%
    23:00 +1°C° 0.1 mm 3 mps 758 mmHg 89%

    Day after tomorrow, 12 December, Wednesday

    Time Temperature Precipitation Wind Pressure Humidity
    00:00 +1°C° 0.1 mm 3 mps 759 mmHg 89%
    01:00 +2°C° 0.1 mm 2 mps 759 mmHg 90%
    02:00 +2°C° 0.2 mm 2 mps 759 mmHg 89%
    03:00 +2°C° 0.2 mm 2 mps 760 mmHg 89%
    04:00 +2°C° 0.2 mm 2 mps 760 mmHg 89%
    05:00 +2°C° 0.1 mm 2 mps 760 mmHg 88%
    06:00 +1°C° 0.1 mm 2 mps 761 mmHg 88%
    07:00 +1°C° 0.1 mm 2 mps 761 mmHg 87%
    08:00 +2°C° 0.1 mm 2 mps 761 mmHg 85%
    09:00 +3°C° 0.1 mm 1 mps 761 mmHg 83%
    10:00 +4°C° 0.1 mm 1 mps 762 mmHg 82%
    11:00 +3°C° 0.1 mm 2 mps 762 mmHg 81%
    12:00 +3°C° 0.1 mm 2 mps 762 mmHg 79%
    13:00 +4°C° 0.1 mm 2 mps 762 mmHg 78%
    14:00 +4°C° 0.2 mm 2 mps 762 mmHg 81%
    15:00 +3°C° 0.2 mm 2 mps 762 mmHg 83%
    16:00 +3°C° 0.2 mm 2 mps 762 mmHg 86%
    17:00 +2°C° 0.1 mm 2 mps 762 mmHg 87%
    18:00 +2°C° 0.1 mm 2 mps 762 mmHg 88%
    19:00 +2°C° 0.1 mm 2 mps 762 mmHg 89%
    20:00 +2°C° 0.1 mm 2 mps 762 mmHg 89%
    21:00 +2°C° 0.1 mm 2 mps 762 mmHg 89%
    22:00 +1°C° 0.1 mm 3 mps 762 mmHg 90%
    23:00 +1°C° 0 mm 3 mps 762 mmHg 90%

    13 December, Thursday

    Time Temperature Precipitation Wind Pressure Humidity
    00:00 +2°C° 0 mm 2 mps 762 mmHg 91%
    01:00 +2°C° 0 mm 2 mps 762 mmHg 91%
    02:00 +1°C° 0 mm 2 mps 762 mmHg 91%
    03:00 +1°C° 0 mm 2 mps 762 mmHg 91%
    04:00 +1°C° 0 mm 2 mps 762 mmHg 91%
    05:00 +1°C° 0 mm 2 mps 762 mmHg 91%
    06:00 +1°C° 0 mm 2 mps 761 mmHg 91%
    07:00 +1°C° 0 mm 2 mps 761 mmHg 91%
    08:00 +1°C° 0 mm 2 mps 761 mmHg 90%
    09:00 +1°C° 0 mm 2 mps 761 mmHg 88%
    10:00 +2°C° 0 mm 2 mps 761 mmHg 86%
    11:00 +2°C° 0 mm 2 mps 761 mmHg 84%
    12:00 +3°C° 0 mm 2 mps 761 mmHg 81%
    13:00 +2°C° 0 mm 3 mps 761 mmHg 78%
    14:00 +1°C° 0 mm 3 mps 760 mmHg 80%
    15:00 +1°C° 0 mm 3 mps 760 mmHg 81%
    16:00 +2°C° 0 mm 2 mps 760 mmHg 83%
    17:00 +1°C° 0 mm 2 mps 760 mmHg 83%
    18:00 0°C° 0 mm 3 mps 760 mmHg 83%
    19:00 0°C° 0 mm 3 mps 761 mmHg 83%
    20:00 +1°C° 0 mm 2 mps 761 mmHg 83%
    21:00 +1°C° 0 mm 2 mps 761 mmHg 83%
    22:00 +1°C° 0 mm 2 mps 761 mmHg 84%
    23:00 +1°C° 0 mm 2 mps 761 mmHg 84%

    14 December, Friday

    Time Temperature Precipitation Wind Pressure Humidity
    00:00 -1°C° 0 mm 2 mps 761 mmHg 85%
    01:00 -1°C° 0 mm 2 mps 762 mmHg 86%
    02:00 -1°C° 0 mm 2 mps 762 mmHg 87%
    03:00 -1°C° 0 mm 2 mps 762 mmHg 87%
    04:00 -1°C° 0 mm 2 mps 762 mmHg 88%
    05:00 -2°C° 0 mm 2 mps 762 mmHg 89%
    06:00 -2°C° 0 mm 2 mps 763 mmHg 89%
    07:00 -2°C° 0 mm 2 mps 763 mmHg 90%
    08:00 -1°C° 0 mm 2 mps 763 mmHg 89%
    09:00 -1°C° 0 mm 2 mps 764 mmHg 87%
    10:00 -1°C° 0 mm 3 mps 765 mmHg 85%
    11:00 0°C° 0 mm 3 mps 765 mmHg 84%
    12:00 0°C° 0 mm 3 mps 765 mmHg 82%
    13:00 0°C° 0 mm 3 mps 765 mmHg 80%
    14:00 +1°C° 0 mm 2 mps 766 mmHg 83%
    15:00 +1°C° 0 mm 2 mps 766 mmHg 85%
    16:00 -1°C° 0 mm 2 mps 766 mmHg 87%
    17:00 -1°C° 0 mm 2 mps 766 mmHg 87%
    18:00 -1°C° 0 mm 3 mps 767 mmHg 86%
    19:00 -1°C° 0 mm 3 mps 767 mmHg 86%
    20:00 -1°C° 0 mm 3 mps 767 mmHg 85%
    21:00 0°C° 0 mm 3 mps 768 mmHg 84%
    22:00 0°C° 0 mm 3 mps 768 mmHg 83%
    23:00 0°C° 0 mm 3 mps 768 mmHg 82%

    15 December, Saturday

    Time Temperature Precipitation Wind Pressure Humidity
    00:00 0°C° 0 mm 3 mps 768 mmHg 82%
    01:00 +1°C° 0 mm 2 mps 769 mmHg 81%
    02:00 +1°C° 0 mm 2 mps 769 mmHg 82%
    03:00 -1°C° 0 mm 2 mps 769 mmHg 82%
    04:00 -1°C° 0 mm 2 mps 769 mmHg 83%
    05:00 -1°C° 0 mm 2 mps 769 mmHg 82%
    06:00 -1°C° 0 mm 3 mps 769 mmHg 82%
    07:00 -1°C° 0 mm 3 mps 770 mmHg 82%
    08:00 -1°C° 0 mm 3 mps 770 mmHg 81%
    09:00 0°C° 0 mm 3 mps 770 mmHg 80%
    10:00 -1°C° 0 mm 4 mps 770 mmHg 79%
    11:00 -1°C° 0 mm 4 mps 770 mmHg 77%
    12:00 -1°C° 0 mm 4 mps 770 mmHg 74%
    13:00 0°C° 0 mm 4 mps 770 mmHg 72%
    14:00 -1°C° 0 mm 4 mps 770 mmHg 76%
    15:00 -2°C° 0 mm 4 mps 770 mmHg 79%
    16:00 -2°C° 0 mm 4 mps 770 mmHg 83%
    17:00 -2°C° 0 mm 4 mps 770 mmHg 84%
    18:00 -2°C° 0 mm 4 mps 770 mmHg 84%
    19:00 -2°C° 0 mm 5 mps 770 mmHg 85%
    20:00 -2°C° 0 mm 5 mps 770 mmHg 84%
    21:00 -3°C° 0 mm 6 mps 769 mmHg 84%
    22:00 -3°C° 0 mm 6 mps 769 mmHg 83%
    23:00 -3°C° 0 mm 6 mps 769 mmHg 82%
    Show more